Tracking 32422 objects as of 7-Dec-2025
HD Live streaming from Space Station
objects crossing your sky now

STARLINK-4687

Track STARLINK-4687 now!
10-day predictions
STARLINK-4687 is classified as:


NORAD ID: 53784
Int'l Code: 2022-111M
Perigee: 545.8 km
Apogee: 547.9 km
Inclination: 53.2 °
Period: 95.4 minutes
Semi major axis: 6917 km
RCS: Unknown
Launch date: September 11, 2022
Source: United States (US)
Launch site: AIR FORCE EASTERN TEST RANGE (AFETR)
Your satellite tracking list
Your tracking list is empty




NASA's NSSDC Master Catalog

Two Line Element Set (TLE):
1 53784U 22111M   25341.27161299  .00006250  00000-0  41031-3 0  9991
2 53784  53.2173 329.0392 0001500  80.6136 279.5026 15.08850978179748
Source of the keplerian elements: AFSPC